| time (UTC) | temp C | wind direction | speed KPH | gust KPH | rain 1hr cm | rain 24hr cm | rain mn cm | humidity % | barometer mb |
| 20260508033014 | 3 | 340 | 0.0 | 0.0 | 0.00 | 0.00 | 0.00 | 79 | 1013.0 |
| 20260508031549 | 4 | 340 | 0.0 | 0.0 | 0.00 | 0.00 | 0.00 | 77 | 1013.1 |
| 20260508030010 | 5 | 340 | 0.0 | 0.0 | 0.00 | 0.00 | 0.00 | 74 | 1013.1 |
| 20260508024549 | 6 | 340 | 0.0 | 0.0 | 0.00 | 0.00 | 0.00 | 70 | 1013.1 |
| 20260508021611 | 7 | 340 | 0.0 | 0.0 | 0.00 | 0.00 | 0.00 | 65 | 1012.9 |
| 20260508020004 | 8 | 340 | 0.0 | 0.0 | 0.00 | 0.00 | 0.00 | 63 | 1012.8 |
| 20260508014538 | 8 | 339 | 0.0 | 1.6 | 0.00 | 0.00 | 0.00 | 61 | 1012.6 |
| 20260508013110 | 9 | 338 | 0.0 | 1.6 | 0.00 | 0.00 | 0.00 | 61 | 1012.5 |
| 20260508011528 | 9 | 5 | 1.6 | 4.8 | 0.00 | 0.00 | 0.00 | 60 | 1012.3 |
| 20260508010106 | 10 | 30 | 0.0 | 3.2 | 0.00 | 0.00 | 0.00 | 59 | 1012.1 |
| 20260508004528 | 10 | 346 | 1.6 | 8.0 | 0.00 | 0.00 | 0.00 | 56 | 1011.9 |
| 20260508003110 | 11 | 351 | 3.2 | 9.7 | 0.00 | 0.00 | 0.00 | 54 | 1011.6 |
| 20260508001601 | 11 | 360 | 0.0 | 8.0 | 0.00 | 0.00 | 0.00 | 51 | 1011.4 |
| 20260508000107 | 11 | 174 | 3.2 | 11.3 | 0.00 | 0.00 | 0.00 | 48 | 1011.2 |
| 20260507234534 | 12 | 317 | 1.6 | 14.5 | 0.00 | 0.00 | 0.00 | 45 | 1011.0 |
| 20260507233108 | 12 | 15 | 1.6 | 11.3 | 0.00 | 0.00 | 0.00 | 44 | 1010.8 |
| 20260507231537 | 12 | 326 | 3.2 | 12.9 | 0.00 | 0.00 | 0.00 | 44 | 1010.7 |
| 20260507230109 | 13 | 318 | 3.2 | 17.7 | 0.00 | 0.00 | 0.00 | 42 | 1010.5 |
| 20260507224542 | 13 | 232 | 3.2 | 11.3 | 0.00 | 0.00 | 0.00 | 44 | 1010.4 |
| 20260507223002 | 13 | 221 | 4.8 | 14.5 | 0.00 | 0.00 | 0.00 | 41 | 1010.3 |
| 20260507221538 | 15 | 344 | 3.2 | 14.5 | 0.00 | 0.00 | 0.00 | 40 | 1010.2 |
| 20260507220101 | 15 | 321 | 4.8 | 12.9 | 0.00 | 0.00 | 0.00 | 39 | 1009.9 |
| 20260507214537 | 15 | 341 | 3.2 | 12.9 | 0.00 | 0.00 | 0.00 | 39 | 1009.8 |
| 20260507213001 | 15 | 142 | 6.4 | 11.3 | 0.00 | 0.00 | 0.00 | 37 | 1009.5 |
| 20260507211536 | 14 | 204 | 3.2 | 19.3 | 0.00 | 0.00 | 0.00 | 41 | 1009.8 |
| 20260507210111 | 15 | 351 | 6.4 | 16.1 | 0.00 | 0.00 | 0.00 | 38 | 1009.6 |
| 20260507204536 | 15 | 155 | 6.4 | 12.9 | 0.00 | 0.00 | 0.00 | 40 | 1009.7 |
| 20260507203011 | 14 | 244 | 4.8 | 17.7 | 0.00 | 0.00 | 0.00 | 47 | 1009.6 |
| 20260507201508 | 14 | 240 | 3.2 | 17.7 | 0.00 | 0.00 | 0.00 | 41 | 1009.7 |
| 20260507200047 | 15 | 259 | 4.8 | 12.9 | 0.00 | 0.00 | 0.00 | 40 | 1009.8 |
| 20260507194518 | 15 | 9 | 4.8 | 17.7 | 0.00 | 0.00 | 0.00 | 41 | 1009.9 |
| 20260507193100 | 15 | 223 | 3.2 | 11.3 | 0.00 | 0.00 | 0.00 | 39 | 1010.0 |
| 20260507191515 | 15 | 216 | 4.8 | 16.1 | 0.00 | 0.00 | 0.00 | 43 | 1010.0 |
| 20260507190052 | 14 | 297 | 3.2 | 14.5 | 0.00 | 0.00 | 0.00 | 44 | 1010.0 |
| 20260507184504 | 15 | 19 | 3.2 | 12.9 | 0.00 | 0.00 | 0.00 | 43 | 1010.2 |
| 20260507183039 | 15 | 11 | 6.4 | 19.3 | 0.00 | 0.00 | 0.00 | 44 | 1010.2 |
| 20260507181615 | 14 | 42 | 6.4 | 11.3 | 0.00 | 0.00 | 0.00 | 44 | 1010.3 |
| 20260507180037 | 14 | 234 | 4.8 | 14.5 | 0.00 | 0.00 | 0.00 | 48 | 1010.5 |
| 20260507174610 | 13 | 223 | 1.6 | 12.9 | 0.00 | 0.00 | 0.00 | 48 | 1010.6 |
| 20260507173033 | 13 | 249 | 4.8 | 12.9 | 0.00 | 0.00 | 0.00 | 48 | 1010.8 |
| 20260507171603 | 13 | 186 | 3.2 | 9.7 | 0.00 | 0.00 | 0.00 | 53 | 1011.0 |
| 20260507170033 | 12 | 11 | 3.2 | 11.3 | 0.00 | 0.00 | 0.00 | 53 | 1011.1 |
| 20260507164558 | 12 | 309 | 4.8 | 11.3 | 0.00 | 0.00 | 0.00 | 52 | 1011.2 |
| 20260507163020 | 13 | 167 | 1.6 | 8.0 | 0.00 | 0.00 | 0.00 | 51 | 1011.3 |
| 20260507161558 | 13 | 275 | 1.6 | 8.0 | 0.00 | 0.00 | 0.00 | 51 | 1011.3 |
| 20260507160020 | 13 | 5 | 3.2 | 11.3 | 0.00 | 0.00 | 0.00 | 51 | 1011.5 |
| 20260507154528 | 12 | 223 | 3.2 | 9.7 | 0.00 | 0.00 | 0.00 | 50 | 1011.7 |
| 20260507153104 | 13 | 10 | 4.8 | 11.3 | 0.00 | 0.00 | 0.00 | 52 | 1011.8 |
| 20260507151527 | 12 | 206 | 3.2 | 11.3 | 0.00 | 0.00 | 0.00 | 53 | 1012.0 |
| 20260507150059 | 12 | 214 | 4.8 | 11.3 | 0.00 | 0.00 | 0.00 | 53 | 1012.2 |
| 20260507144629 | 12 | 166 | 3.2 | 14.5 | 0.00 | 0.00 | 0.00 | 56 | 1012.3 |
| 20260507143106 | 12 | 5 | 3.2 | 11.3 | 0.00 | 0.00 | 0.00 | 58 | 1012.4 |
| 20260507141524 | 11 | 253 | 3.2 | 9.7 | 0.00 | 0.00 | 0.00 | 63 | 1012.7 |
| 20260507140105 | 10 | 249 | 1.6 | 8.0 | 0.00 | 0.00 | 0.00 | 67 | 1012.9 |
| 20260507134527 | 10 | 228 | 3.2 | 12.9 | 0.00 | 0.05 | 0.00 | 68 | 1013.1 |
| 20260507133109 | 10 | 245 | 4.8 | 9.7 | 0.00 | 0.05 | 0.00 | 71 | 1013.1 |
| 20260507131533 | 8 | 223 | 4.8 | 11.3 | 0.00 | 0.05 | 0.00 | 75 | 1013.2 |
| 20260507130003 | 7 | 273 | 0.0 | 4.8 | 0.00 | 0.05 | 0.00 | 84 | 1013.1 |
| 20260507124535 | 6 | 243 | 3.2 | 6.4 | 0.00 | 0.10 | 0.00 | 92 | 1013.2 |
| 20260507123002 | 5 | 234 | 0.0 | 6.4 | 0.00 | 0.10 | 0.00 | 95 | 1013.1 |
| 20260507121533 | 4 | 11 | 0.0 | 0.0 | 0.00 | 0.10 | 0.00 | 96 | 1013.3 |
| 20260507120017 | 2 | 13 | 0.0 | 0.0 | 0.00 | 0.10 | 0.00 | 95 | 1013.3 |
| 20260507114653 | 2 | 13 | 0.0 | 0.0 | 0.00 | 0.13 | 0.00 | 95 | 1013.4 |
| 20260507113100 | 1 | 13 | 0.0 | 0.0 | 0.00 | 0.13 | 0.00 | 95 | 1013.3 |
| 20260507111521 | 0 | 13 | 0.0 | 0.0 | 0.00 | 0.13 | 0.00 | 94 | 1013.1 |
| 20260507110110 | 0 | 13 | 0.0 | 0.0 | 0.00 | 0.13 | 0.00 | 94 | 1013.0 |
| 20260507104523 | 0 | 13 | 0.0 | 0.0 | 0.00 | 0.51 | 0.00 | 93 | 1012.8 |
| 20260507103056 | 0 | 13 | 0.0 | 0.0 | 0.00 | 0.51 | 0.00 | 93 | 1012.7 |
| 20260507101627 | 0 | 13 | 0.0 | 0.0 | 0.00 | 0.51 | 0.00 | 93 | 1012.6 |
| 20260507100049 | 0 | 13 | 0.0 | 0.0 | 0.00 | 0.51 | 0.00 | 93 | 1012.7 |
| 20260507094506 | 0 | 14 | 0.0 | 0.0 | 0.00 | 0.71 | 0.00 | 93 | 1012.6 |
| 20260507093151 | 0 | 13 | 0.0 | 0.0 | 0.00 | 0.71 | 0.00 | 92 | 1012.5 |
| 20260507091530 | 1 | 14 | 0.0 | 0.0 | 0.00 | 0.71 | 0.00 | 92 | 1012.7 |
| 20260507090052 | 1 | 14 | 0.0 | 0.0 | 0.00 | 0.71 | 0.00 | 92 | 1012.6 |
| 20260507084514 | 1 | 14 | 0.0 | 0.0 | 0.00 | 1.04 | 0.00 | 92 | 1012.6 |
| 20260507083051 | 1 | 13 | 0.0 | 0.0 | 0.00 | 1.04 | 0.00 | 91 | 1012.7 |
| 20260507081540 | 2 | 14 | 0.0 | 0.0 | 0.00 | 1.04 | 0.00 | 91 | 1012.6 |
| 20260507080104 | 2 | 14 | 0.0 | 0.0 | 0.00 | 1.04 | 0.00 | 91 | 1012.6 |
| 20260507074544 | 2 | 13 | 0.0 | 0.0 | 0.00 | 1.04 | 0.00 | 90 | 1012.6 |
| 20260507073106 | 3 | 14 | 0.0 | 0.0 | 0.00 | 1.04 | 0.00 | 90 | 1012.5 |
| 20260507071526 | 3 | 13 | 0.0 | 0.0 | 0.00 | 1.04 | 0.00 | 89 | 1012.7 |
| 20260507070106 | 3 | 13 | 0.0 | 0.0 | 0.00 | 1.04 | 0.00 | 89 | 1012.7 |
| 20260507064601 | 4 | 14 | 0.0 | 0.0 | 0.00 | 1.17 | 0.00 | 88 | 1012.7 |
| 20260507063021 | 5 | 14 | 0.0 | 0.0 | 0.00 | 1.17 | 0.00 | 87 | 1012.7 |
| 20260507061541 | 5 | 14 | 0.0 | 0.0 | 0.00 | 1.17 | 0.00 | 86 | 1012.8 |
| 20260507060029 | 6 | 13 | 0.0 | 0.0 | 0.00 | 1.17 | 0.00 | 85 | 1012.8 |
| 20260507054633 | 6 | 14 | 0.0 | 0.0 | 0.00 | 1.32 | 0.00 | 84 | 1012.9 |
| 20260507053014 | 6 | 14 | 0.0 | 3.2 | 0.00 | 1.32 | 0.00 | 84 | 1013.1 |
| 20260507051547 | 6 | 14 | 0.0 | 0.0 | 0.00 | 1.32 | 0.00 | 82 | 1013.5 |
| 20260507050025 | 6 | 13 | 0.0 | 0.0 | 0.00 | 1.32 | 0.00 | 81 | 1013.4 |
| 20260507044604 | 6 | 13 | 0.0 | 0.0 | 0.00 | 1.40 | 0.00 | 81 | 1013.5 |
| 20260507043033 | 7 | 14 | 0.0 | 0.0 | 0.00 | 1.40 | 0.00 | 81 | 1013.4 |
| 20260507041501 | 7 | 13 | 0.0 | 0.0 | 0.00 | 1.40 | 0.00 | 80 | 1013.4 |
| 20260507040029 | 7 | 14 | 0.0 | 0.0 | 0.00 | 1.40 | 0.00 | 79 | 1013.2 |
| 20260507034603 | 7 | 13 | 0.0 | 0.0 | 0.00 | 1.40 | 1.40 | 78 | 1013.2 |